Miscellaneous Local Product
Issued by NWS Hastings, NE

Home | Current Version | Previous Version | Graphics & Text | Print | Product List | Glossary On
Versions: 1 2 3 4 5 6 7 8 9 10 11 12 13 14 15 16 17 18 19 20 21 22 23 24 25 26 27 28 29 30 31 32 33 34 35 36 37 38 39 40 41 42 43 44 45 46 47 48 49 50
000
AXUS43 KGID 191102
MISGRI

GID CWA HOURLY WEATHER ROUNDUP
NATIONAL WEATHER SERVICE HASTINGS NE
600 AM CDT TUE SEP 19 2017

NOTE: "FAIR" INDICATES FEW OR NO CLOUDS BELOW 12,000 FEET WITH NO
SIGNIFICANT WEATHER AND/OR OBSTRUCTIONS TO VISIBILITY.

...SOUTH CENTRAL NEBRASKA...

CITY           SKY/WX    TMP DP  RH WIND       PRES   REMARKS
GRAND ISLAND   CLEAR     63  63 100 S9        29.77F
HASTINGS       CLEAR     64  61  90 S8        29.78F
KEARNEY        CLEAR     62  61  96 S6        29.76F
ORD            FOG       61  59  93 SE5       29.74F VSB 1/4
YORK           CLEAR     64  64 100 S7        29.79S
AURORA         CLEAR     62  62 100 S6        29.78S
LEXINGTON      CLEAR     61  58  92 E7        29.74F
HOLDREGE       CLEAR     63  60  91 S7        29.75F
HEBRON         CLEAR     67  64  93 S6        29.80S

...NEBRASKA PANHANDLE...

CITY           SKY/WX    TMP DP  RH WIND       PRES   REMARKS
CHADRON        CLOUDY    66  47  50 S28G33    29.59F
ALLIANCE       CLOUDY    56  52  86 S8        29.68F
SCOTTSBLUFF    CLOUDY    55  48  77 E7        29.68F
SIDNEY         CLEAR     49  45  86 CALM      29.71F

...WESTERN AND NORTH CENTRAL NEBRASKA...

CITY           SKY/WX    TMP DP  RH WIND       PRES   REMARKS
VALENTINE      CLEAR     63  59  87 S6        29.68F
AINSWORTH      CLOUDY    60  60 100 S9        29.71F
ONEILL         MOCLDY    61  61 100 SE8       29.75S FOG
BROKEN BOW     FOG       52  52 100 SE5       29.75S VSB 1/2
IMPERIAL       CLOUDY    63  58  83 S13       29.70F
NORTH PLATTE   CLEAR     59  57  93 E9        29.71F
MCCOOK         CLEAR     67  64  90 S9        29.71F

...EASTERN NEBRASKA...

CITY           SKY/WX    TMP DP  RH WIND       PRES   REMARKS
NORFOLK        CLOUDY    64  64 100 SE8       29.78S FOG
SO SIOUX CITY  CLOUDY    66  66 100 SE8       29.81S FOG
TEKAMAH        CLOUDY    67  65  93 SE10      29.81S FOG
COLUMBUS       CLEAR     66  64  93 SE5       29.79F
ALBION         LGT RAIN  63  63  99 SE6       29.77F VSB 1/4
OMAHA EPPLEY   CLOUDY    68  64  87 SE13      29.82F
OFFUTT AFB     CLOUDY    67  65  94 SE9       29.82S
MILLARD        CLOUDY    69  67  95 SE8       29.82S FOG
LINCOLN        CLEAR     67  64  90 S10       29.81S
NEBRASKA CITY  CLOUDY    67  67 100 S7        29.84S FOG
BEATRICE       CLEAR     67  65  95 SE7       29.81S
FALLS CITY     CLEAR     66  65  96 SE6       29.83F FOG

...NORTHERN KANSAS...

CITY           SKY/WX    TMP DP  RH WIND       PRES   REMARKS
GOODLAND       PTCLDY    63  63 100 S17       29.72F FOG
HILL CITY      CLEAR     69  65  86 S8        29.75F
NORTON         SUNNY     68  61  77 SE5       29.73F
PHILLIPSBURG   CLEAR     64  64 100 E6        29.75F
SMITH CENTER   CLEAR     61  59  94 E7        29.78F
HAYS           CLEAR     69  63  81 S9        29.77F
RUSSELL        CLEAR     68  64  87 S15       29.75F
CONCORDIA      CLEAR     68  67  96 S8        29.80S
SALINA         CLEAR     70  66  87 S12       29.80F
TOPEKA         CLEAR     66  65  96 CALM      29.84S



USA.gov is the U.S. government's official web portal to all federal, state and local government web resources and services.